Location: Shepherdstown, WV
(39.4326°N, 77.8042°W)
Time: 20:08:50
(UTC-04:00)

Transit 2A - Pass Details

Date: 11 August 2021
Orbit: 594 x 964 km, 66.7° (Epoch: 24 September)

Event Time Altitude Azimuth Distance (km) Brightness Sun altitude
Exits shadow 05:41:10 10° 248° (WSW) 1,995 7.5 -7.8°
Reaches altitude 10° 05:41:15 10° 249° (WSW) 1,967 7.5 -7.8°
Maximum altitude 05:45:04 28° 309° (NW) 1,200 6.8 -7.1°
Drops below altitude 10° 05:49:09 10° 9° (N) 2,112 8.8 -6.4°
Sets 05:51:52 0° 21° (NNE) 3,093 9.9 -5.9°
